Home > Weather > Leimen > Past weeks

Flag for Germany Past Weather in Leimen, Baden-Württemberg, Germany — Yesterday and Last 2 Weeks

Now
73 °F

Partly sunny.


Feels Like: 76 °F
Forecast: 54 / 68 °F
Wind: 9 mph from South

Location: Mannheim City

Current Time: Jul 1, 2016 at 1:47:19 PM

Latest Report: Jul 1, 2016 at 12:50 PM


Visibility: N/A

Pressure: 30.04 "Hg

Humidity: 61%

Dew Point: 59 °F

Location of LeimenLocation

Past Weather in Leimen — Graph

°F

Leimen Temperature Yesterday

Maximum temperature yesterday: 75 °F (at 6:20 PM)
Minimum temperature yesterday: 63 °F (at 6:20 AM)
Average temperature yesterday: 70 °F

High & Low Weather Summary for the Past Weeks

 TemperatureHumidityPressure
High93 °F (Jun 23, 5:50 PM)100% (Jun 18, 6:50 AM)30.24 "Hg (Jun 18, 6:50 AM)
Low52 °F (Jun 20, 5:20 AM)32% (Jun 23, 7:20 PM)29.59 "Hg (Jun 16, 6:20 PM)
Average70 °F69%30.04 "Hg
* Reported Jun 16 12:20 PM — Jul 1 12:20 PM, Leimen, Weather by CustomWeather, © 2016

Note: Actual official high and low records may vary slightly from our data, if they occured in-between our weather recording intervals... More about our weather records

Advertising

Leimen Weather History for the Previous 24 Hours

Scroll right to see more
 ConditionsComfort  
Time TempWeatherWind HumidityBarometerVisibility
12:20 PM
Fri, Jul 1
72 °FBroken clouds.10 mph65%30.04 "HgN/A
11:50 AM73 °FPartly sunny.9 mph65%30.04 "HgN/A
11:20 AM73 °FScattered clouds.12 mph65%30.04 "HgN/A
10:50 AM72 °FScattered clouds.10 mph65%30.04 "HgN/A
10:20 AM72 °FScattered clouds.9 mph69%30.04 "HgN/A
9:50 AM70 °FPassing clouds.8 mph69%30.04 "HgN/A
9:20 AM68 °FPassing clouds.8 mph73%30.04 "HgN/A
8:50 AM70 °FPassing clouds.8 mph73%30.04 "HgN/A
8:20 AM68 °FPassing clouds.7 mph78%30.04 "HgN/A
7:50 AM66 °FPassing clouds.5 mph83%30.04 "HgN/A
7:20 AM64 °FPassing clouds.6 mph88%30.04 "HgN/A
6:50 AM64 °FSunny.6 mph88%30.04 "Hg10 mi
6:20 AM63 °FClear.5 mph94%30.04 "Hg10 mi
5:50 AM63 °FClear.2 mph94%30.01 "Hg10 mi
5:20 AM61 °FClear.3 mph100%30.01 "Hg10 mi
11:20 PM
Thu, Jun 30
70 °FClear.2 mph64%30.01 "Hg10 mi
10:50 PM70 °FClear.2 mph69%30.01 "Hg10 mi
10:20 PM70 °FSunny.2 mph64%30.01 "Hg10 mi
9:50 PM72 °FSunny.3 mph61%29.98 "Hg10 mi
9:20 PM73 °FPassing clouds.6 mph53%29.98 "HgN/A
8:50 PM73 °FPassing clouds.6 mph53%29.98 "HgN/A
8:20 PM73 °FPassing clouds.7 mph53%29.98 "HgN/A
7:50 PM73 °FPassing clouds.7 mph53%29.95 "HgN/A
7:20 PM73 °FPassing clouds.6 mph53%29.95 "HgN/A
6:50 PM75 °FPassing clouds.7 mph47%29.98 "HgN/A
6:20 PM75 °FPassing clouds.8 mph47%29.95 "HgN/A
5:50 PM73 °FPassing clouds.6 mph57%29.98 "HgN/A
5:20 PM73 °FPassing clouds.7 mph53%29.98 "HgN/A
4:50 PM73 °FPartly sunny.7 mph53%29.98 "HgN/A
4:20 PM73 °FPartly sunny.7 mph53%29.98 "HgN/A
3:50 PM73 °FPassing clouds.5 mph53%29.98 "HgN/A
3:20 PM73 °FPassing clouds.6 mph53%29.98 "HgN/A
2:50 PM73 °FBroken clouds.6 mph53%29.98 "HgN/A
2:20 PM73 °FPartly sunny.3 mph57%29.98 "HgN/A
1:50 PM73 °FPartly sunny.6 mph57%29.98 "HgN/A
1:20 PM73 °FPartly sunny.7 mph53%29.98 "HgN/A
Weather by CustomWeather, © 2016

See weather overviewHow to use our weather pages